{"data":{"norad_id":66575,"epoch":"2026-09-19T12:46:06.460608Z","epoch_age_seconds":170338,"freshness":"FRESH","line1":"1 66575U 25268U   26262.53201922  .00007913  00000+0  29664-3 0  9993","line2":"2 66575  43.0054 332.5028 0001738 259.7367 100.3289 15.27595916 47608","mean_motion":15.27595916,"eccentricity":0.0001738,"inclination_deg":43.0054,"raan_deg":332.5028,"arg_perigee_deg":259.7367,"mean_anomaly_deg":100.3289,"bstar":0.00029664,"rev_number":4760,"period_min":94.265766549745,"perigee_km":481.80897236313,"apogee_km":484.19390408426,"semimajor_km":6861.1384382237,"source":"CELESTRAK","updated_at":"2026-09-21T09:00:35.973234Z"}}